COSMOS 2251 DEB, 34139

Orbit data source: Space-Track

COSMOS 2251 DEB, 34139 is space debris in LEO originally from a launch on Wed, 16 Jun 1993 UTC launched from the Plesetsk Missile And Space Complex (PKMTR). The debris from Iridium 33, an American commercial communications satellite, has been tracked extensively since its accidental collision with the defunct Russian satellite Cosmos 2251 in 2009. This event, occurring at high speed in low Earth orbit (LEO), generated thousands of pieces of space debris, significantly increasing the risk of further collisions. The Iridium 33 debris cloud has impacted space traffic management and orbital debris mitigation strategies, making it a subject of ongoing study in space situational awareness.

Loading next visibility...
Identifier
34139, 1993-036LL
Orbit
LEO
Country
Flag of CISCIS
Related business
Manufacturer
Unknown
Mission
Spacecraft
Bus & Motor
Unknown
Mass
Unknown
Launch date (UTC)
1993-06-16 (33 years ago)
Launch vehicle
Unknown
Launch site
Plesetsk Missile And Space Complex (PKMTR)
Object type
Payload
Rocket body
Debris
Shape & HBR
Unknown shape, 0.1 m
Radar Cross Section
Small (<0.1 m²)

Expand to show TLE details & history
Last TLE update: 20 hours ago

TLE from 20 hours ago
0 COSMOS 2251 DEB
1 34139U 93036LL  26035.38601990  .00010615  00000-0  21821-2 0  9992
2 34139  74.0312 151.7399 0041233 215.2527 202.0172 14.60133007889320
Epoch: 2026-02-04T09:15Z
TLE epoch observation values (Epoch: 2026-02-04T09:15:52.119Z)
Latitude
53.92885°
Longitude
-98.78064°
Altitude
728.312 km
Speed
7.482 km/s
True Right ascension
11h 38m 57s
True Declination
53° 45' 52"
Sunlit
Object was in full shadow at epoch
Visualization orbit readout
Latitude
Unknown
Longitude
Unknown
Altitude
Unknown
Speed
Unknown
Apparent Right ascension
Unknown
Apparent Declination
Unknown
Sunlit
N/A
Visualization observer readout
Local Sidereal Time
07:12:49
Azimuth
Unknown
Elevation
Unknown
Doppler factor
Unknown
Orbital elements
Apogee altitude
719.488 km
Perigee altitude
661.197 km
Semi-major axis
7,068.479 km
Eccentricity
0.00412
Inclination
74.0312°
RAAN
151.7399°
Arg. of periapsis
215.2527°
True anomaly
201.84091°
Mean anomaly
202.0172°
Eccentric anomaly
201.92897°
Mean motion
3.6522 °/min
Orbital period
98.57 mins
BSTAR
0.0021821
Loading maneuver chart data...
Computing Atmospheric mass density...

Documentation

Showing up to 5 results
|